• In Netherlands
  • List of Countries
  • For 7 days
  • Water Temperature
  • Satellite Maps
  • Weather Map
  • Weather Widgets
  • user-avatar
    Login

    Hourly Weather Dinagepoor

    Today, 21 July, Friday

    Time Temperature Precipitation Wind Pressure Humidity
    00:00 +30°C° 0.4 mm 4 mps 748 mmHg 82%
    01:00 +30°C° 0.4 mm 4 mps 748 mmHg 83%
    02:00 +30°C° 0.4 mm 4 mps 748 mmHg 83%
    03:00 +29°C° 0.4 mm 4 mps 748 mmHg 84%
    04:00 +29°C° 0.7 mm 4 mps 748 mmHg 84%
    05:00 +29°C° 0.7 mm 4 mps 748 mmHg 84%
    06:00 +29°C° 0 mm 4 mps 748 mmHg 85%
    07:00 +30°C° 0.5 mm 4 mps 748 mmHg 82%
    08:00 +30°C° 0.5 mm 5 mps 749 mmHg 78%
    09:00 +32°C° 0.5 mm 6 mps 749 mmHg 75%
    10:00 +33°C° 1.1 mm 6 mps 749 mmHg 71%
    11:00 +34°C° 1.1 mm 6 mps 748 mmHg 67%
    12:00 +35°C° 1.1 mm 6 mps 748 mmHg 64%
    13:00 +35°C° 1.1 mm 6 mps 747 mmHg 63%
    14:00 +36°C° 1.1 mm 6 mps 747 mmHg 62%
    15:00 +36°C° 1.1 mm 5 mps 747 mmHg 61%
    16:00 +36°C° 0.4 mm 5 mps 746 mmHg 63%
    17:00 +35°C° 0.4 mm 4 mps 746 mmHg 65%
    18:00 +35°C° 0.4 mm 4 mps 746 mmHg 67%
    19:00 +34°C° 0.5 mm 4 mps 747 mmHg 71%
    20:00 +33°C° 0.5 mm 3 mps 747 mmHg 75%
    21:00 +31°C° 0.5 mm 3 mps 747 mmHg 79%
    22:00 +31°C° 0.8 mm 3 mps 748 mmHg 80%
    23:00 +31°C° 0.8 mm 3 mps 748 mmHg 82%

    Tomorrow, 22 July, Saturday

    Time Temperature Precipitation Wind Pressure Humidity
    00:00 +30°C° 0.8 mm 4 mps 748 mmHg 83%
    01:00 +30°C° 0.9 mm 4 mps 748 mmHg 83%
    02:00 +30°C° 0.9 mm 4 mps 748 mmHg 84%
    03:00 +30°C° 0.9 mm 4 mps 747 mmHg 85%
    04:00 +30°C° 0.3 mm 4 mps 747 mmHg 85%
    05:00 +29°C° 0.3 mm 4 mps 748 mmHg 85%
    06:00 +29°C° 0.3 mm 4 mps 748 mmHg 85%
    07:00 +30°C° 0.7 mm 5 mps 748 mmHg 81%
    08:00 +32°C° 0.7 mm 6 mps 748 mmHg 77%
    09:00 +33°C° 0.7 mm 6 mps 749 mmHg 73%
    10:00 +34°C° 0.8 mm 6 mps 749 mmHg 70%
    11:00 +35°C° 0.8 mm 6 mps 749 mmHg 67%
    12:00 +35°C° 0.8 mm 6 mps 748 mmHg 64%
    13:00 +36°C° 1.1 mm 6 mps 748 mmHg 63%
    14:00 +36°C° 1.1 mm 6 mps 747 mmHg 62%
    15:00 +36°C° 1.1 mm 6 mps 747 mmHg 61%
    16:00 +36°C° 1.5 mm 5 mps 747 mmHg 64%
    17:00 +35°C° 1.5 mm 5 mps 747 mmHg 67%
    18:00 +34°C° 1.5 mm 4 mps 747 mmHg 70%
    19:00 +34°C° 0.5 mm 4 mps 747 mmHg 73%
    20:00 +33°C° 0.5 mm 3 mps 748 mmHg 76%
    21:00 +31°C° 0.5 mm 3 mps 748 mmHg 79%
    22:00 +31°C° 0.4 mm 3 mps 748 mmHg 80%
    23:00 +31°C° 0.4 mm 3 mps 748 mmHg 82%

    Day after tomorrow, 23 July, Sunday

    Time Temperature Precipitation Wind Pressure Humidity
    00:00 +31°C° 0.4 mm 3 mps 748 mmHg 83%
    01:00 +30°C° 1.5 mm 3 mps 748 mmHg 83%
    02:00 +30°C° 1.5 mm 3 mps 748 mmHg 83%
    03:00 +30°C° 1.5 mm 2 mps 747 mmHg 84%
    04:00 +30°C° 0.6 mm 3 mps 747 mmHg 84%
    05:00 +30°C° 0.6 mm 3 mps 747 mmHg 84%
    06:00 +30°C° 0.6 mm 3 mps 747 mmHg 84%
    07:00 +30°C° 0.2 mm 3 mps 748 mmHg 82%
    08:00 +32°C° 0.2 mm 4 mps 748 mmHg 79%
    09:00 +33°C° 0.2 mm 4 mps 748 mmHg 76%
    10:00 +33°C° 0.3 mm 4 mps 748 mmHg 73%
    11:00 +34°C° 0.3 mm 4 mps 748 mmHg 70%
    12:00 +35°C° 0.3 mm 4 mps 748 mmHg 68%
    13:00 +35°C° 1.6 mm 3 mps 747 mmHg 66%
    14:00 +35°C° 1.6 mm 3 mps 747 mmHg 65%
    15:00 +36°C° 1.6 mm 3 mps 746 mmHg 64%
    16:00 +35°C° 2.6 mm 2 mps 746 mmHg 67%
    17:00 +34°C° 2.6 mm 2 mps 746 mmHg 70%
    18:00 +33°C° 2.6 mm 1 mps 746 mmHg 73%
    19:00 +33°C° 0.1 mm 1 mps 746 mmHg 75%
    20:00 +32°C° 0.1 mm 1 mps 747 mmHg 77%
    21:00 +32°C° 0.1 mm 1 mps 747 mmHg 79%
    22:00 +31°C° 1.7 mm 1 mps 747 mmHg 80%
    23:00 +31°C° 1.7 mm 1 mps 747 mmHg 81%

    24 July, Monday

    Time Temperature Precipitation Wind Pressure Humidity
    00:00 +31°C° 1.7 mm 1 mps 747 mmHg 82%
    01:00 +30°C° 0.8 mm 1 mps 747 mmHg 82%
    02:00 +30°C° 0.8 mm 2 mps 746 mmHg 83%
    03:00 +30°C° 0.8 mm 2 mps 746 mmHg 84%
    04:00 +30°C° 0.1 mm 2 mps 746 mmHg 84%
    05:00 +30°C° 0.1 mm 1 mps 746 mmHg 85%
    06:00 +30°C° 0.1 mm 1 mps 746 mmHg 86%
    07:00 +30°C° 0.4 mm 1 mps 747 mmHg 82%
    08:00 +31°C° 0.4 mm 1 mps 747 mmHg 79%
    09:00 +31°C° 0.4 mm 1 mps 747 mmHg 76%
    10:00 +32°C° 0.3 mm 2 mps 747 mmHg 73%
    11:00 +34°C° 0.3 mm 2 mps 747 mmHg 69%
    12:00 +35°C° 0.3 mm 2 mps 747 mmHg 66%
    13:00 +35°C° 1.1 mm 2 mps 746 mmHg 65%
    14:00 +35°C° 1.1 mm 2 mps 745 mmHg 63%
    15:00 +36°C° 1.1 mm 2 mps 744 mmHg 62%
    16:00 +35°C° 0.5 mm 2 mps 744 mmHg 64%
    17:00 +35°C° 0.5 mm 2 mps 744 mmHg 65%
    18:00 +35°C° 0.5 mm 2 mps 744 mmHg 67%
    19:00 +34°C° 0 mm 2 mps 745 mmHg 70%
    20:00 +34°C° 0 mm 2 mps 745 mmHg 73%
    21:00 +32°C° 0 mm 2 mps 746 mmHg 76%
    22:00 +32°C° 1.2 mm 2 mps 746 mmHg 78%
    23:00 +31°C° 1.2 mm 2 mps 746 mmHg 80%

    25 July, Tuesday

    Time Temperature Precipitation Wind Pressure Humidity
    00:00 +31°C° 1.2 mm 2 mps 746 mmHg 82%
    01:00 +31°C° 0.5 mm 2 mps 745 mmHg 83%
    02:00 +31°C° 0.5 mm 1 mps 745 mmHg 83%
    03:00 +30°C° 0.5 mm 1 mps 745 mmHg 84%
    04:00 +30°C° 0 mm 1 mps 745 mmHg 85%
    05:00 +30°C° 0 mm 1 mps 745 mmHg 85%
    06:00 +30°C° 0 mm 2 mps 745 mmHg 86%
    07:00 +31°C° 0.1 mm 2 mps 745 mmHg 82%
    08:00 +31°C° 0.1 mm 3 mps 746 mmHg 78%
    09:00 +33°C° 0.1 mm 3 mps 746 mmHg 74%
    10:00 +33°C° 0.3 mm 3 mps 746 mmHg 73%
    11:00 +34°C° 0.3 mm 4 mps 746 mmHg 72%
    12:00 +34°C° 0.3 mm 4 mps 746 mmHg 71%
    13:00 +34°C° 0.1 mm 3 mps 745 mmHg 69%
    14:00 +34°C° 0.1 mm 3 mps 745 mmHg 67%
    15:00 +35°C° 0.1 mm 3 mps 744 mmHg 65%
    16:00 +35°C° 0 mm 2 mps 744 mmHg 66%
    17:00 +35°C° 0 mm 2 mps 745 mmHg 67%
    18:00 +35°C° 0 mm 2 mps 745 mmHg 67%
    19:00 +34°C° 0.1 mm 2 mps 745 mmHg 70%
    20:00 +32°C° 0.1 mm 1 mps 746 mmHg 72%
    21:00 +32°C° 0.1 mm 1 mps 746 mmHg 75%
    22:00 +32°C° 0.4 mm 1 mps 746 mmHg 76%
    23:00 +31°C° 0.4 mm 2 mps 746 mmHg 78%

    26 July, Wednesday

    Time Temperature Precipitation Wind Pressure Humidity
    00:00 +31°C° 0.4 mm 2 mps 746 mmHg 79%
    01:00 +31°C° 0.6 mm 2 mps 746 mmHg 80%
    02:00 +31°C° 0.6 mm 2 mps 745 mmHg 82%
    03:00 +30°C° 0.6 mm 2 mps 745 mmHg 83%
    04:00 +30°C° 1 mm 2 mps 745 mmHg 83%
    05:00 +30°C° 1 mm 2 mps 746 mmHg 84%
    06:00 +30°C° 1 mm 2 mps 746 mmHg 85%
    07:00 +31°C° 1.3 mm 3 mps 746 mmHg 79%
    08:00 +33°C° 1.3 mm 3 mps 746 mmHg 72%
    09:00 +35°C° 1.3 mm 4 mps 747 mmHg 66%
    10:00 +36°C° 0.3 mm 4 mps 747 mmHg 62%
    11:00 +37°C° 0.3 mm 4 mps 746 mmHg 57%
    12:00 +38°C° 0.3 mm 4 mps 746 mmHg 53%
    13:00 +38°C° 1.1 mm 4 mps 745 mmHg 53%
    14:00 +38°C° 1.1 mm 4 mps 745 mmHg 53%
    15:00 +38°C° 1.1 mm 4 mps 744 mmHg 53%
    16:00 +37°C° 0.9 mm 4 mps 745 mmHg 58%
    17:00 +36°C° 0.9 mm 4 mps 745 mmHg 62%
    18:00 +35°C° 0.9 mm 4 mps 745 mmHg 66%
    19:00 +34°C° 0.1 mm 4 mps 745 mmHg 70%
    20:00 +32°C° 0.1 mm 4 mps 746 mmHg 74%
    21:00 +30°C° 0.1 mm 4 mps 746 mmHg 77%
    22:00 +30°C° 0 mm 4 mps 746 mmHg 79%
    23:00 +29°C° 0 mm 4 mps 746 mmHg 81%
    Show more